DW0268 Weather Reports


time (UTC)temp
C
wind
direction
speed
KPH
gust
KPH
rain 1hr
cm
rain 24hr
cm
rain mn
cm
humidity
%
barometer
mb
20260510144518 23 290 4.8 8.0 0.00 0.00 0.00 63 1018.5
20260510143010 22 154 0.0 3.2 0.00 0.00 0.00 67 1018.4
20260510141505 21 154 1.6 4.8 0.00 0.00 0.00 69 1018.2
20260510140002 21 162 3.2 8.0 0.00 0.00 0.00 72 1018.1
20260510134606 20 168 4.8 8.0 0.00 0.00 0.00 74 1018.3
20260510133056 20 163 1.6 6.4 0.00 0.00 0.00 76 1018.1
20260510131553 18 162 0.0 1.6 0.00 0.00 0.00 79 1018.1
20260510130050 18 162 0.0 8.0 0.00 0.00 0.00 83 1018.0
20260510124549 17 161 0.0 3.2 0.00 0.00 0.00 86 1018.0
20260510123049 16 161 0.0 3.2 0.00 0.00 0.00 88 1018.1
20260510121547 15 161 0.0 3.2 0.00 0.00 0.00 88 1018.0
20260510120046 15 161 0.0 0.0 0.00 0.00 0.00 87 1018.3
20260510114545 15 161 0.0 0.0 0.00 0.00 0.00 87 1017.9
20260510113044 14 161 0.0 3.2 0.00 0.00 0.00 87 1017.7
20260510111603 14 161 1.6 6.4 0.00 0.00 0.00 87 1017.3
20260510110039 14 102 1.6 3.2 0.00 0.00 0.00 86 1017.0
20260510104538 15 93 0.0 3.2 0.00 0.00 0.00 84 1016.6
20260510103036 15 92 1.6 6.4 0.00 0.00 0.00 84 1016.7
20260510101534 15 49 3.2 9.7 0.00 0.00 0.00 84 1016.6
20260510100031 15 84 1.6 6.4 0.00 0.00 0.00 83 1016.6
20260510094528 15 140 1.6 4.8 0.00 0.00 0.00 82 1016.4
20260510093042 16 180 0.0 0.0 0.00 0.00 0.00 81 1015.8
20260510091525 16 180 1.6 4.8 0.00 0.00 0.00 81 1015.8
20260510090035 16 175 3.2 4.8 0.00 0.00 0.00 80 1015.5
20260510084522 16 175 0.0 3.2 0.00 0.00 0.00 79 1015.1
20260510083018 16 175 1.6 4.8 0.00 0.00 0.00 78 1015.1
20260510081517 16 174 1.6 6.4 0.00 0.00 0.00 77 1015.0
20260510080016 16 186 1.6 8.0 0.00 0.00 0.00 78 1015.0
20260510074516 16 209 4.8 8.0 0.00 0.00 0.00 79 1014.9
20260510073011 17 207 3.2 9.7 0.00 0.00 0.00 76 1014.9
20260510071510 17 197 4.8 8.0 0.00 0.00 0.00 76 1014.9
20260510070008 17 209 4.8 8.0 0.00 0.00 0.00 75 1014.9
20260510064507 17 221 6.4 8.0 0.00 0.00 0.00 75 1015.2
20260510063005 17 221 4.8 8.0 0.00 0.00 0.00 73 1015.2
20260510061501 18 221 4.8 8.0 0.00 0.00 0.00 71 1015.1
20260510060059 18 221 6.4 8.0 0.00 0.00 0.00 70 1015.2
20260510054558 18 223 9.7 11.3 0.00 0.00 0.00 69 1015.0
20260510053057 18 207 6.4 9.7 0.00 0.00 0.00 70 1015.0
20260510051558 18 213 6.4 9.7 0.00 0.00 0.00 70 1014.9
20260510050056 18 209 6.4 11.3 0.00 0.00 0.00 68 1014.7
20260510044614 18 209 6.4 11.3 0.00 0.00 0.00 68 1014.6
20260510043051 18 213 8.0 11.3 0.00 0.00 0.00 68 1014.7
20260510041552 19 210 8.0 11.3 0.00 0.00 0.00 64 1014.7
20260510040049 20 197 9.7 12.9 0.00 0.00 0.00 59 1014.7
20260510034549 20 184 6.4 9.7 0.00 0.00 0.00 60 1014.6
20260510033047 20 171 4.8 8.0 0.00 0.00 0.00 59 1014.6
20260510031546 20 192 8.0 11.3 0.00 0.00 0.00 62 1014.6
20260510030044 21 211 6.4 11.3 0.00 0.00 0.00 56 1014.3
20260510024543 21 198 8.0 11.3 0.00 0.00 0.00 54 1014.3
20260510023048 22 186 9.7 11.3 0.00 0.00 0.00 51 1014.2
20260510021542 22 180 6.4 11.3 0.00 0.00 0.00 51 1014.1
20260510020040 22 182 6.4 11.3 0.00 0.00 0.00 55 1013.8
20260510014540 22 205 4.8 8.0 0.00 0.00 0.00 59 1013.5
20260510013037 23 210 8.0 11.3 0.00 0.00 0.00 53 1013.4
20260510011538 23 211 6.4 9.7 0.00 0.00 0.00 53 1013.3
20260510010036 24 207 6.4 9.7 0.00 0.00 0.00 47 1013.0
20260510004536 25 218 6.4 8.0 0.00 0.00 0.00 49 1012.8
20260510003034 26 192 3.2 8.0 0.00 0.00 0.00 40 1012.7
20260510001533 27 180 3.2 8.0 0.00 0.00 0.00 38 1012.5
20260510000032 27 189 3.2 6.4 0.00 0.00 0.00 37 1012.6
20260509234531 27 155 3.2 9.7 0.00 0.00 0.00 35 1012.5
20260509233029 27 211 1.6 4.8 0.00 0.00 0.00 35 1012.4
20260509231531 27 216 6.4 14.5 0.00 0.00 0.00 34 1012.5
20260509230026 27 234 8.0 14.5 0.00 0.00 0.00 36 1012.4
20260509224529 27 360 6.4 9.7 0.00 0.00 0.00 35 1012.4
20260509223025 27 279 6.4 14.5 0.00 0.00 0.00 33 1012.3
20260509221526 27 171 3.2 14.5 0.00 0.00 0.00 35 1012.3
20260509220021 27 247 4.8 9.7 0.00 0.00 0.00 35 1012.3
20260509214520 27 232 11.3 19.3 0.00 0.00 0.00 34 1012.3
20260509213017 27 221 0.0 9.7 0.00 0.00 0.00 35 1012.3
20260509211517 27 360 8.0 12.9 0.00 0.00 0.00 35 1012.2
20260509210014 27 360 3.2 14.5 0.00 0.00 0.00 37 1012.1
20260509204513 27 292 11.3 17.7 0.00 0.00 0.00 40 1012.2
20260509203019 27 217 3.2 12.9 0.00 0.00 0.00 40 1012.3
20260509201510 27 360 3.2 17.7 0.00 0.00 0.00 43 1012.6
20260509200008 27 241 8.0 14.5 0.00 0.00 0.00 44 1012.7
20260509194505 26 140 1.6 17.7 0.00 0.00 0.00 47 1013.1
20260509193003 26 219 6.4 11.3 0.00 0.00 0.00 48 1013.2
20260509191502 27 217 6.4 12.9 0.00 0.00 0.00 47 1013.3
20260509190106 26 230 1.6 6.4 0.00 0.00 0.00 52 1013.5
20260509184600 25 234 8.0 17.7 0.00 0.00 0.00 52 1013.6
20260509183055 25 173 3.2 8.0 0.00 0.00 0.00 52 1013.5
20260509181559 25 108 1.6 4.8 0.00 0.00 0.00 54 1013.5
20260509180058 24 306 4.8 9.7 0.00 0.00 0.00 55 1013.5
20260509174549 25 55 3.2 6.4 0.00 0.00 0.00 57 1013.4
20260509173046 23 298 3.2 11.3 0.00 0.00 0.00 58 1013.6
20260509171543 23 318 6.4 12.9 0.00 0.00 0.00 62 1013.7
20260509170041 22 277 3.2 9.7 0.00 0.00 0.00 67 1013.9
20260509164539 22 277 3.2 12.9 0.00 0.00 0.00 68 1013.8
20260509163038 22 300 3.2 8.0 0.00 0.00 0.00 68 1013.9
20260509161536 21 304 6.4 12.9 0.00 0.00 0.00 70 1013.8
20260509160032 21 306 8.0 12.9 0.00 0.00 0.00 70 1013.8
20260509154530 21 355 4.8 12.9 0.00 0.00 0.00 72 1013.7
20260509153026 20 266 8.0 16.1 0.00 0.00 0.00 75 1013.6
20260509151524 20 302 4.8 11.3 0.00 0.00 0.00 77 1013.6
20260509150021 19 293 3.2 9.7 0.00 0.00 0.00 79 1013.5